Time,TemperatureF,DewpointF,PressureIn,WindDirection,WindDirectionDegrees,WindSpeedMPH,WindSpeedGustMPH,Humidity,HourlyPrecipIn,Conditions,Clouds,dailyrainin,SoftwareType,DateUTC
2013-11-24 00:01:00,24.9,8.5,30.13,WNW,297,8.0,26.0,49,0.00,,CLR,0.00,VWS V14.01,2013-11-24 05:01:00,
2013-11-24 00:02:00,24.9,8.5,30.13,WNW,295,11.0,26.0,49,0.00,,CLR,0.00,VWS V14.01,2013-11-24 05:02:00,
2013-11-24 00:07:00,25.0,7.6,30.13,WNW,298,9.0,18.0,47,0.00,,BKN070,0.00,VWS V14.01,2013-11-24 05:07:00,
2013-11-24 00:12:00,24.9,7.1,30.13,NW,305,17.0,23.0,46,0.00,,BKN070,0.00,VWS V14.01,2013-11-24 05:12:00,
2013-11-24 00:17:00,24.9,7.1,30.13,NW,311,13.0,21.0,46,0.00,,BKN070,0.00,VWS V14.01,2013-11-24 05:17:00,
2013-11-24 00:22:00,24.7,6.4,30.13,NW,316,19.0,25.0,45,0.00,,BKN070,0.00,VWS V14.01,2013-11-24 05:22:00,
2013-11-24 00:27:00,24.6,6.8,30.13,NW,304,12.0,18.0,46,0.00,,BKN070,0.00,VWS V14.01,2013-11-24 05:27:00,
2013-11-24 00:32:00,24.3,6.0,30.13,NW,305,21.0,27.0,45,0.00,,BKN070,0.00,VWS V14.01,2013-11-24 05:32:00,
2013-11-24 00:37:00,24.2,6.4,30.14,WNW,285,12.0,18.0,46,0.00,,BKN070,0.00,VWS V14.01,2013-11-24 05:37:00,
2013-11-24 00:42:00,24.2,5.9,30.13,NE,47,10.0,23.0,45,0.00,,BKN070,0.00,VWS V14.01,2013-11-24 05:42:00,
2013-11-24 00:47:00,24.1,5.8,30.13,WNW,287,19.0,25.0,45,0.00,,BKN070,0.00,VWS V14.01,2013-11-24 05:47:00,
2013-11-24 00:52:00,24.0,5.3,30.13,NW,316,10.0,22.0,44,0.00,,BKN070,0.00,VWS V14.01,2013-11-24 05:52:00,
2013-11-24 00:57:00,23.8,6.1,30.14,WNW,283,4.0,24.0,46,0.00,,BKN070,0.00,VWS V14.01,2013-11-24 05:57:00,
2013-11-24 01:02:00,23.7,6.0,30.13,WSW,255,11.0,23.0,46,0.00,,BKN070,0.00,VWS V14.01,2013-11-24 06:02:00,
2013-11-24 01:07:00,23.7,5.5,30.14,WNW,297,9.0,25.0,45,0.00,,SCT065,0.00,VWS V14.01,2013-11-24 06:07:00,
2013-11-24 01:12:00,23.6,5.9,30.14,South,188,13.0,27.0,46,0.00,,SCT065,0.00,VWS V14.01,2013-11-24 06:12:00,
2013-11-24 01:17:00,23.6,5.9,30.14,NW,304,14.0,25.0,46,0.00,,SCT065,0.00,VWS V14.01,2013-11-24 06:17:00,
2013-11-24 01:22:00,23.5,6.2,30.14,NW,311,7.0,21.0,47,0.00,,SCT065,0.00,VWS V14.01,2013-11-24 06:22:00,
2013-11-24 01:27:00,23.2,6.4,30.15,NNW,328,8.0,17.0,48,0.00,,SCT065,0.00,VWS V14.01,2013-11-24 06:27:00,
2013-11-24 01:32:00,23.1,6.8,30.14,WNW,289,11.0,14.0,49,0.00,,SCT065,0.00,VWS V14.01,2013-11-24 06:32:00,
2013-11-24 01:37:00,23.1,7.2,30.15,WNW,298,8.0,12.0,50,0.00,,SCT065,0.00,VWS V14.01,2013-11-24 06:37:00,
2013-11-24 01:42:00,23.1,7.7,30.14,NW,312,6.0,15.0,51,0.00,,SCT065,0.00,VWS V14.01,2013-11-24 06:42:00,
2013-11-24 01:48:00,22.9,7.9,30.15,WNW,297,9.0,14.0,52,0.00,,SCT065,0.00,VWS V14.01,2013-11-24 06:48:00,
2013-11-24 01:53:00,22.8,8.2,30.15,West,276,3.0,12.0,53,0.00,,SCT065,0.00,VWS V14.01,2013-11-24 06:53:00,
2013-11-24 01:58:00,22.8,8.7,30.15,WNW,298,6.0,13.0,54,0.00,,SCT065,0.00,VWS V14.01,2013-11-24 06:58:00,
2013-11-24 02:03:00,22.7,9.0,30.15,WNW,295,4.0,11.0,55,0.00,,SCT065,0.00,VWS V14.01,2013-11-24 07:03:00,
2013-11-24 02:08:00,22.7,9.0,30.15,NW,319,1.0,10.0,55,0.00,,FEW070,0.00,VWS V14.01,2013-11-24 07:08:00,
2013-11-24 02:13:00,22.6,8.9,30.16,NW,309,6.0,14.0,55,0.00,,FEW070,0.00,VWS V14.01,2013-11-24 07:13:00,
2013-11-24 02:18:00,22.7,9.4,30.15,SW,235,8.0,13.0,56,0.00,,FEW070,0.00,VWS V14.01,2013-11-24 07:18:00,
2013-11-24 02:23:00,22.9,9.2,30.16,WNW,294,13.0,22.0,55,0.00,,FEW070,0.00,VWS V14.01,2013-11-24 07:23:00,
2013-11-24 02:28:00,22.9,9.2,30.16,WNW,291,6.0,18.0,55,0.00,,FEW070,0.00,VWS V14.01,2013-11-24 07:28:00,
2013-11-24 02:33:00,22.9,9.2,30.16,WNW,291,11.0,20.0,55,0.00,,FEW070,0.00,VWS V14.01,2013-11-24 07:33:00,
2013-11-24 02:38:00,22.9,9.6,30.16,NW,316,10.0,17.0,56,0.00,,FEW070,0.00,VWS V14.01,2013-11-24 07:38:00,
2013-11-24 02:43:00,22.9,10.0,30.16,West,273,6.0,13.0,57,0.00,,FEW070,0.00,VWS V14.01,2013-11-24 07:43:00,
2013-11-24 02:49:00,22.9,9.6,30.15,West,270,3.0,16.0,56,0.00,,FEW070,0.00,VWS V14.01,2013-11-24 07:49:00,
2013-11-24 02:54:00,22.9,9.2,30.15,NW,311,6.0,16.0,55,0.00,,FEW070,0.00,VWS V14.01,2013-11-24 07:54:00,
2013-11-24 02:59:00,22.7,9.0,30.15,West,274,9.0,16.0,55,0.00,,FEW070,0.00,VWS V14.01,2013-11-24 07:59:00,
2013-11-24 03:04:00,22.6,8.5,30.16,WNW,288,16.0,17.0,54,0.00,,FEW070,0.00,VWS V14.01,2013-11-24 08:04:00,
2013-11-24 03:09:00,22.6,8.5,30.16,WNW,302,5.0,19.0,54,0.00,,FEW060,0.00,VWS V14.01,2013-11-24 08:09:00,
2013-11-24 03:14:00,22.5,8.8,30.16,NW,321,8.0,20.0,55,0.00,,FEW060,0.00,VWS V14.01,2013-11-24 08:14:00,
2013-11-24 03:19:00,22.4,8.7,30.16,NW,314,3.0,18.0,55,0.00,,FEW060,0.00,VWS V14.01,2013-11-24 08:19:00,
2013-11-24 03:24:00,22.4,9.1,30.16,West,281,5.0,23.0,56,0.00,,FEW060,0.00,VWS V14.01,2013-11-24 08:24:00,
2013-11-24 03:29:00,22.3,9.0,30.16,WNW,301,7.0,19.0,56,0.00,,FEW060,0.00,VWS V14.01,2013-11-24 08:29:00,
2013-11-24 03:34:00,22.2,9.3,30.16,WNW,301,5.0,13.0,57,0.00,,FEW060,0.00,VWS V14.01,2013-11-24 08:34:00,
2013-11-24 03:39:00,22.3,9.0,30.16,WNW,301,12.0,19.0,56,0.00,,FEW060,0.00,VWS V14.01,2013-11-24 08:39:00,
2013-11-24 03:44:00,22.4,8.7,30.16,NW,305,8.0,22.0,55,0.00,,FEW060,0.00,VWS V14.01,2013-11-24 08:44:00,
2013-11-24 03:49:00,22.4,8.3,30.16,WNW,302,13.0,24.0,54,0.00,,FEW060,0.00,VWS V14.01,2013-11-24 08:49:00,
2013-11-24 03:54:00,22.3,8.6,30.17,NNW,335,12.0,17.0,55,0.00,,FEW060,0.00,VWS V14.01,2013-11-24 08:54:00,
2013-11-24 03:59:00,22.3,8.6,30.17,WNW,285,11.0,16.0,55,0.00,,FEW060,0.00,VWS V14.01,2013-11-24 08:59:00,
2013-11-24 04:04:00,22.3,9.0,30.17,WNW,290,8.0,15.0,56,0.00,,FEW060,0.00,VWS V14.01,2013-11-24 09:04:00,
2013-11-24 04:09:00,22.3,8.6,30.17,West,281,8.0,23.0,55,0.00,,FEW060,0.00,VWS V14.01,2013-11-24 09:09:00,
2013-11-24 04:14:00,21.9,8.2,30.17,WNW,299,9.0,11.0,55,0.00,,FEW060,0.00,VWS V14.01,2013-11-24 09:14:00,
2013-11-24 04:19:00,21.9,8.2,30.17,WNW,299,9.0,9.0,55,0.00,,FEW060,0.00,VWS V14.01,2013-11-24 09:19:00,
2013-11-24 04:24:00,21.9,8.2,30.17,WNW,299,9.0,9.0,55,0.00,,FEW060,0.00,VWS V14.01,2013-11-24 09:24:00,
2013-11-24 04:29:00,21.9,8.2,30.17,WNW,299,9.0,9.0,55,0.00,,FEW060,0.00,VWS V14.01,2013-11-24 09:29:00,
2013-11-24 04:34:00,21.9,8.2,30.17,WNW,299,9.0,9.0,55,0.00,,FEW060,0.00,VWS V14.01,2013-11-24 09:34:00,
2013-11-24 04:39:00,21.9,8.2,30.17,WNW,299,9.0,9.0,55,0.00,,FEW060,0.00,VWS V14.01,2013-11-24 09:39:00,
2013-11-24 04:44:00,21.9,8.2,30.18,WNW,299,9.0,9.0,55,0.00,,FEW060,0.00,VWS V14.01,2013-11-24 09:44:00,
2013-11-24 04:49:00,21.9,8.2,30.17,WNW,299,9.0,9.0,55,0.00,,FEW060,0.00,VWS V14.01,2013-11-24 09:49:00,
2013-11-24 04:54:00,21.9,8.2,30.18,WNW,299,9.0,9.0,55,0.00,,FEW060,0.00,VWS V14.01,2013-11-24 09:54:00,
2013-11-24 04:59:00,21.9,8.2,30.19,WNW,299,9.0,9.0,55,0.00,,FEW060,0.00,VWS V14.01,2013-11-24 09:59:00,
2013-11-24 05:04:00,21.7,2.2,30.18,WNW,301,7.0,19.0,42,0.00,,FEW060,0.00,VWS V14.01,2013-11-24 10:04:00,
2013-11-24 05:09:00,21.5,3.0,30.18,WSW,249,8.0,21.0,44,0.00,,CLR,0.00,VWS V14.01,2013-11-24 10:09:00,
2013-11-24 05:14:00,21.5,2.0,30.18,West,281,20.0,28.0,42,0.00,,CLR,0.00,VWS V14.01,2013-11-24 10:14:00,
2013-11-24 05:19:00,21.4,2.9,30.19,North,349,16.0,24.0,44,0.00,,CLR,0.00,VWS V14.01,2013-11-24 10:19:00,
2013-11-24 05:24:00,21.2,2.7,30.19,NW,317,4.0,24.0,44,0.00,,CLR,0.00,VWS V14.01,2013-11-24 10:24:00,
2013-11-24 05:29:00,21.1,3.1,30.19,West,276,9.0,21.0,45,0.00,,CLR,0.00,VWS V14.01,2013-11-24 10:29:00,
2013-11-24 05:34:00,21.1,3.6,30.19,WNW,291,10.0,16.0,46,0.00,,CLR,0.00,VWS V14.01,2013-11-24 10:34:00,
2013-11-24 05:39:00,21.0,3.9,30.19,NW,306,5.0,18.0,47,0.00,,CLR,0.00,VWS V14.01,2013-11-24 10:39:00,
2013-11-24 05:44:00,20.8,4.2,30.20,WNW,300,7.0,14.0,48,0.00,,CLR,0.00,VWS V14.01,2013-11-24 10:44:00,
2013-11-24 05:49:00,20.8,2.8,30.19,NNW,338,12.0,34.0,45,0.00,,CLR,0.00,VWS V14.01,2013-11-24 10:49:00,
2013-11-24 05:54:00,20.8,2.8,30.20,West,266,19.0,19.0,45,0.00,,CLR,0.00,VWS V14.01,2013-11-24 10:54:00,
2013-11-24 06:00:00,20.1,2.2,30.21,NW,309,14.0,19.0,45,0.00,,CLR,0.00,VWS V14.01,2013-11-24 11:00:00,
2013-11-24 06:05:00,20.1,2.2,30.21,NW,309,14.0,14.0,45,0.00,,CLR,0.00,VWS V14.01,2013-11-24 11:05:00,
2013-11-24 06:10:00,20.1,2.2,30.21,NW,309,14.0,14.0,45,0.00,,CLR,0.00,VWS V14.01,2013-11-24 11:10:00,
2013-11-24 06:15:00,20.1,2.2,30.22,NW,309,14.0,14.0,45,0.00,,CLR,0.00,VWS V14.01,2013-11-24 11:15:00,
2013-11-24 06:20:00,20.1,2.2,30.22,NW,309,14.0,14.0,45,0.00,,CLR,0.00,VWS V14.01,2013-11-24 11:20:00,
2013-11-24 06:25:00,20.1,2.2,30.22,NW,309,14.0,14.0,45,0.00,,CLR,0.00,VWS V14.01,2013-11-24 11:25:00,
2013-11-24 06:30:00,20.1,2.2,30.22,NW,309,14.0,14.0,45,0.00,,CLR,0.00,VWS V14.01,2013-11-24 11:30:00,
2013-11-24 06:35:00,20.1,2.2,30.23,NW,309,14.0,14.0,45,0.00,,CLR,0.00,VWS V14.01,2013-11-24 11:35:00,
2013-11-24 06:40:00,20.1,2.2,30.23,NW,309,14.0,14.0,45,0.00,,CLR,0.00,VWS V14.01,2013-11-24 11:40:00,
2013-11-24 06:45:00,20.1,2.2,30.23,NW,309,14.0,14.0,45,0.00,,CLR,0.00,VWS V14.01,2013-11-24 11:45:00,
2013-11-24 06:50:00,20.1,2.2,30.23,NW,309,14.0,14.0,45,0.00,,CLR,0.00,VWS V14.01,2013-11-24 11:50:00,
2013-11-24 06:55:00,20.1,2.2,30.24,NW,309,14.0,14.0,45,0.00,,CLR,0.00,VWS V14.01,2013-11-24 11:55:00,
2013-11-24 07:01:00,20.1,2.2,30.24,NW,309,14.0,14.0,45,0.00,,CLR,0.00,VWS V14.01,2013-11-24 12:01:00,
2013-11-24 07:06:00,20.1,2.2,30.24,NW,309,14.0,14.0,45,0.00,,CLR,0.00,VWS V14.01,2013-11-24 12:06:00,
2013-11-24 07:11:00,20.1,2.2,30.24,NW,309,14.0,14.0,45,0.00,,CLR,0.00,VWS V14.01,2013-11-24 12:11:00,
2013-11-24 07:16:00,20.1,2.2,30.24,NW,309,14.0,14.0,45,0.00,,CLR,0.00,VWS V14.01,2013-11-24 12:16:00,
2013-11-24 07:21:00,20.1,2.2,30.25,NW,309,14.0,14.0,45,0.00,,CLR,0.00,VWS V14.01,2013-11-24 12:21:00,
2013-11-24 07:26:00,20.1,2.2,30.25,NW,309,14.0,14.0,45,0.00,,CLR,0.00,VWS V14.01,2013-11-24 12:26:00,
2013-11-24 07:31:00,20.1,2.2,30.25,NW,309,14.0,14.0,45,0.00,,CLR,0.00,VWS V14.01,2013-11-24 12:31:00,
2013-11-24 07:36:00,20.1,2.2,30.25,NW,309,14.0,14.0,45,0.00,,CLR,0.00,VWS V14.01,2013-11-24 12:36:00,
2013-11-24 07:41:00,20.0,2.6,30.25,WNW,287,11.0,12.0,46,0.00,,CLR,0.00,VWS V14.01,2013-11-24 12:41:00,
2013-11-24 07:46:00,20.1,2.2,30.26,WNW,285,5.0,28.0,45,0.00,,CLR,0.00,VWS V14.01,2013-11-24 12:46:00,
2013-11-24 07:51:00,20.2,2.3,30.26,West,261,9.0,13.0,45,0.00,,CLR,0.00,VWS V14.01,2013-11-24 12:51:00,
2013-11-24 07:56:00,20.3,2.4,30.27,NW,309,6.0,16.0,45,0.00,,CLR,0.00,VWS V14.01,2013-11-24 12:56:00,
2013-11-24 08:01:00,20.5,1.6,30.27,NW,309,8.0,19.0,43,0.00,,CLR,0.00,VWS V14.01,2013-11-24 13:01:00,
2013-11-24 08:06:00,20.6,2.2,30.28,NW,312,7.0,12.0,44,0.00,,CLR,0.00,VWS V14.01,2013-11-24 13:06:00,
2013-11-24 08:12:00,20.7,1.8,30.28,WNW,287,12.0,19.0,43,0.00,,CLR,0.00,VWS V14.01,2013-11-24 13:12:00,
2013-11-24 08:17:00,20.8,1.8,30.28,WNW,302,10.0,16.0,43,0.00,,CLR,0.00,VWS V14.01,2013-11-24 13:17:00,
2013-11-24 08:22:00,20.9,1.9,30.28,WNW,287,3.0,22.0,43,0.00,,CLR,0.00,VWS V14.01,2013-11-24 13:22:00,
2013-11-24 08:27:00,21.2,2.7,30.28,WNW,298,15.0,15.0,44,0.00,,CLR,0.00,VWS V14.01,2013-11-24 13:27:00,
2013-11-24 08:32:00,21.3,2.3,30.28,NW,312,20.0,20.0,43,0.00,,CLR,0.00,VWS V14.01,2013-11-24 13:32:00,
2013-11-24 08:37:00,21.3,2.3,30.28,West,280,7.0,20.0,43,0.00,,CLR,0.00,VWS V14.01,2013-11-24 13:37:00,
2013-11-24 08:42:00,21.6,2.6,30.28,NW,309,14.0,18.0,43,0.00,,CLR,0.00,VWS V14.01,2013-11-24 13:42:00,
2013-11-24 08:47:00,21.6,2.1,30.28,North,354,20.0,22.0,42,0.00,,CLR,0.00,VWS V14.01,2013-11-24 13:47:00,
2013-11-24 08:52:00,21.6,2.1,30.29,WNW,303,8.0,23.0,42,0.00,,CLR,0.00,VWS V14.01,2013-11-24 13:52:00,
2013-11-24 08:57:00,21.6,2.6,30.29,WNW,296,12.0,25.0,43,0.00,,CLR,0.00,VWS V14.01,2013-11-24 13:57:00,
2013-11-24 09:02:00,21.8,2.8,30.29,NW,321,11.0,21.0,43,0.00,,CLR,0.00,VWS V14.01,2013-11-24 14:02:00,
2013-11-24 09:07:00,21.7,2.7,30.29,WNW,296,13.0,33.0,43,0.00,,FEW065,0.00,VWS V14.01,2013-11-24 14:07:00,
2013-11-24 09:12:00,21.9,2.8,30.29,WNW,294,11.0,26.0,43,0.00,,FEW065,0.00,VWS V14.01,2013-11-24 14:12:00,
2013-11-24 09:18:00,22.1,3.0,30.30,NW,304,7.0,19.0,43,0.00,,FEW065,0.00,VWS V14.01,2013-11-24 14:18:00,
2013-11-24 09:23:00,22.1,2.5,30.30,West,259,16.0,27.0,42,0.00,,FEW065,0.00,VWS V14.01,2013-11-24 14:23:00,
2013-11-24 09:28:00,22.3,3.2,30.30,NW,307,13.0,17.0,43,0.00,,FEW065,0.00,VWS V14.01,2013-11-24 14:28:00,
2013-11-24 09:33:00,22.7,4.1,30.29,NW,323,12.0,17.0,44,0.00,,FEW065,0.00,VWS V14.01,2013-11-24 14:33:00,
2013-11-24 09:38:00,22.7,3.1,30.29,WNW,288,16.0,25.0,42,0.00,,FEW065,0.00,VWS V14.01,2013-11-24 14:38:00,
2013-11-24 09:43:00,22.6,2.5,30.29,WNW,293,15.0,28.0,41,0.00,,FEW065,0.00,VWS V14.01,2013-11-24 14:43:00,
2013-11-24 09:48:00,22.7,2.5,30.30,NNW,344,21.0,24.0,41,0.00,,FEW065,0.00,VWS V14.01,2013-11-24 14:48:00,
2013-11-24 09:53:00,23.0,3.3,30.30,WSW,257,9.0,20.0,42,0.00,,FEW065,0.00,VWS V14.01,2013-11-24 14:53:00,
2013-11-24 09:58:00,23.1,3.4,30.30,WNW,300,13.0,22.0,42,0.00,,FEW065,0.00,VWS V14.01,2013-11-24 14:58:00,
2013-11-24 10:03:00,23.4,3.7,30.30,WSW,253,7.0,23.0,42,0.00,,FEW065,0.00,VWS V14.01,2013-11-24 15:03:00,
2013-11-24 10:08:00,23.3,3.6,30.30,WNW,303,4.0,21.0,42,0.00,,FEW060,0.00,VWS V14.01,2013-11-24 15:08:00,
2013-11-24 10:13:00,23.5,3.8,30.30,West,276,13.0,25.0,42,0.00,,FEW060,0.00,VWS V14.01,2013-11-24 15:13:00,
2013-11-24 10:19:00,23.6,3.9,30.30,NW,319,12.0,24.0,42,0.00,,FEW060,0.00,VWS V14.01,2013-11-24 15:19:00,
2013-11-24 10:24:00,23.6,3.4,30.30,WNW,295,9.0,30.0,41,0.00,,FEW060,0.00,VWS V14.01,2013-11-24 15:24:00,
2013-11-24 10:29:00,23.8,3.5,30.30,WNW,284,15.0,25.0,41,0.00,,FEW060,0.00,VWS V14.01,2013-11-24 15:29:00,
2013-11-24 10:34:00,23.7,3.5,30.31,NW,314,13.0,23.0,41,0.00,,FEW060,0.00,VWS V14.01,2013-11-24 15:34:00,
2013-11-24 10:39:00,24.2,4.4,30.31,WNW,284,10.0,21.0,42,0.00,,FEW060,0.00,VWS V14.01,2013-11-24 15:39:00,
2013-11-24 10:44:00,24.3,4.0,30.30,West,280,12.0,22.0,41,0.00,,FEW060,0.00,VWS V14.01,2013-11-24 15:44:00,
2013-11-24 10:49:00,24.3,4.0,30.30,WNW,287,9.0,26.0,41,0.00,,FEW060,0.00,VWS V14.01,2013-11-24 15:49:00,
2013-11-24 10:54:00,24.6,4.8,30.31,NW,316,8.0,18.0,42,0.00,,FEW060,0.00,VWS V14.01,2013-11-24 15:54:00,
2013-11-24 10:59:00,24.7,4.4,30.30,West,281,15.0,21.0,41,0.00,,FEW060,0.00,VWS V14.01,2013-11-24 15:59:00,
2013-11-24 11:04:00,24.8,5.0,30.30,NW,316,6.0,23.0,42,0.00,,FEW060,0.00,VWS V14.01,2013-11-24 16:04:00,
2013-11-24 11:09:00,25.0,4.6,30.30,WNW,290,15.0,21.0,41,0.00,,CLR,0.00,VWS V14.01,2013-11-24 16:09:00,
2013-11-24 11:14:00,24.8,5.0,30.30,WNW,301,13.0,21.0,42,0.00,,CLR,0.00,VWS V14.01,2013-11-24 16:14:00,
2013-11-24 11:19:00,24.7,4.4,30.30,NNW,335,16.0,24.0,41,0.00,,CLR,0.00,VWS V14.01,2013-11-24 16:19:00,
2013-11-24 11:25:00,24.8,3.9,30.30,NW,304,10.0,12.0,40,0.00,,CLR,0.00,VWS V14.01,2013-11-24 16:25:00,
2013-11-24 11:30:00,25.1,4.2,30.30,NW,307,14.0,14.0,40,0.00,,CLR,0.00,VWS V14.01,2013-11-24 16:30:00,
2013-11-24 11:35:00,25.3,4.9,30.30,NNW,337,12.0,12.0,41,0.00,,CLR,0.00,VWS V14.01,2013-11-24 16:35:00,
2013-11-24 11:40:00,25.4,3.9,30.30,WNW,290,15.0,15.0,39,0.00,,CLR,0.00,VWS V14.01,2013-11-24 16:40:00,
2013-11-24 11:45:00,25.3,3.8,30.30,NNW,340,14.0,15.0,39,0.00,,CLR,0.00,VWS V14.01,2013-11-24 16:45:00,
2013-11-24 11:50:00,25.5,5.1,30.30,WNW,297,1.0,7.0,41,0.00,,CLR,0.00,VWS V14.01,2013-11-24 16:50:00,
2013-11-24 11:55:00,25.8,4.8,30.30,WNW,297,17.0,21.0,40,0.00,,CLR,0.00,VWS V14.01,2013-11-24 16:55:00,
2013-11-24 12:00:00,25.8,4.3,30.30,WNW,300,10.0,17.0,39,0.00,,CLR,0.00,VWS V14.01,2013-11-24 17:00:00,
2013-11-24 12:05:00,26.0,4.4,30.30,NNW,328,6.0,13.0,39,0.00,,CLR,0.00,VWS V14.01,2013-11-24 17:05:00,
2013-11-24 12:10:00,26.5,4.9,30.30,WNW,297,17.0,19.0,39,0.00,,CLR,0.00,VWS V14.01,2013-11-24 17:10:00,
2013-11-24 12:16:00,26.2,4.1,30.31,WNW,291,11.0,23.0,38,0.00,,CLR,0.00,VWS V14.01,2013-11-24 17:16:00,
2013-11-24 12:21:00,26.0,3.3,30.30,NW,305,14.0,21.0,37,0.00,,CLR,0.00,VWS V14.01,2013-11-24 17:21:00,
2013-11-24 12:26:00,26.2,4.1,30.30,WNW,287,7.0,13.0,38,0.00,,CLR,0.00,VWS V14.01,2013-11-24 17:26:00,
2013-11-24 12:31:00,26.3,4.2,30.30,WNW,302,4.0,30.0,38,0.00,,CLR,0.00,VWS V14.01,2013-11-24 17:31:00,
2013-11-24 12:36:00,26.5,4.3,30.30,NW,319,7.0,21.0,38,0.00,,CLR,0.00,VWS V14.01,2013-11-24 17:36:00,
2013-11-24 12:41:00,26.1,4.0,30.31,NW,326,14.0,18.0,38,0.00,,CLR,0.00,VWS V14.01,2013-11-24 17:41:00,
2013-11-24 12:46:00,25.9,4.4,30.30,WNW,295,15.0,17.0,39,0.00,,CLR,0.00,VWS V14.01,2013-11-24 17:46:00,
2013-11-24 12:51:00,26.3,4.2,30.30,NNE,22,6.0,18.0,38,0.00,,CLR,0.00,VWS V14.01,2013-11-24 17:51:00,
2013-11-24 12:56:00,26.5,4.3,30.30,NW,317,16.0,22.0,38,0.00,,CLR,0.00,VWS V14.01,2013-11-24 17:56:00,
2013-11-24 13:01:00,26.6,4.4,30.31,North,11,6.0,17.0,38,0.00,,CLR,0.00,VWS V14.01,2013-11-24 18:01:00,
2013-11-24 13:06:00,26.9,5.3,30.30,WNW,291,13.0,21.0,39,0.00,,SCT070,0.00,VWS V14.01,2013-11-24 18:06:00,
2013-11-24 13:12:00,26.9,4.7,30.31,West,281,8.0,17.0,38,0.00,,SCT070,0.00,VWS V14.01,2013-11-24 18:12:00,
2013-11-24 13:17:00,26.6,3.8,30.30,WNW,293,16.0,22.0,37,0.00,,SCT070,0.00,VWS V14.01,2013-11-24 18:17:00,
2013-11-24 13:22:00,26.6,3.8,30.30,West,273,5.0,17.0,37,0.00,,SCT070,0.00,VWS V14.01,2013-11-24 18:22:00,
2013-11-24 13:27:00,26.9,4.1,30.30,WNW,288,12.0,18.0,37,0.00,,SCT070,0.00,VWS V14.01,2013-11-24 18:27:00,
2013-11-24 13:32:00,27.1,4.9,30.30,West,277,4.0,15.0,38,0.00,,SCT070,0.00,VWS V14.01,2013-11-24 18:32:00,
2013-11-24 13:37:00,27.6,4.8,30.30,WSW,255,13.0,17.0,37,0.00,,SCT070,0.00,VWS V14.01,2013-11-24 18:37:00,
2013-11-24 13:42:00,27.2,3.8,30.30,NW,307,14.0,20.0,36,0.00,,SCT070,0.00,VWS V14.01,2013-11-24 18:42:00,
2013-11-24 13:47:00,27.3,4.5,30.30,WNW,303,9.0,23.0,37,0.00,,SCT070,0.00,VWS V14.01,2013-11-24 18:47:00,
2013-11-24 13:52:00,27.2,3.2,30.31,NW,319,16.0,24.0,35,0.00,,SCT070,0.00,VWS V14.01,2013-11-24 18:52:00,
2013-11-24 13:57:00,27.1,4.3,30.31,West,270,9.0,21.0,37,0.00,,SCT070,0.00,VWS V14.01,2013-11-24 18:57:00,
2013-11-24 14:02:00,27.1,3.1,30.31,West,276,11.0,25.0,35,0.00,,SCT070,0.00,VWS V14.01,2013-11-24 19:02:00,
2013-11-24 14:07:00,27.2,3.2,30.31,NW,319,12.0,17.0,35,0.00,,CLR,0.00,VWS V14.01,2013-11-24 19:07:00,
2013-11-24 14:13:00,27.5,4.1,30.31,WNW,284,8.0,19.0,36,0.00,,CLR,0.00,VWS V14.01,2013-11-24 19:13:00,
2013-11-24 14:18:00,27.8,4.9,30.32,WNW,297,7.0,13.0,37,0.00,,CLR,0.00,VWS V14.01,2013-11-24 19:18:00,
2013-11-24 14:23:00,28.0,4.5,30.31,WNW,282,10.0,16.0,36,0.00,,CLR,0.00,VWS V14.01,2013-11-24 19:23:00,
2013-11-24 14:28:00,27.5,4.1,30.32,NW,305,18.0,19.0,36,0.00,,CLR,0.00,VWS V14.01,2013-11-24 19:28:00,
2013-11-24 14:33:00,27.7,4.8,30.32,WNW,293,5.0,16.0,37,0.00,,CLR,0.00,VWS V14.01,2013-11-24 19:33:00,
2013-11-24 14:38:00,27.7,4.2,30.32,WNW,303,7.0,19.0,36,0.00,,CLR,0.00,VWS V14.01,2013-11-24 19:38:00,
2013-11-24 14:43:00,27.5,3.5,30.32,NW,310,11.0,19.0,35,0.00,,CLR,0.00,VWS V14.01,2013-11-24 19:43:00,
2013-11-24 14:48:00,27.4,3.4,30.32,NW,308,17.0,22.0,35,0.00,,CLR,0.00,VWS V14.01,2013-11-24 19:48:00,
2013-11-24 14:53:00,27.2,2.6,30.33,WNW,290,13.0,23.0,34,0.00,,CLR,0.00,VWS V14.01,2013-11-24 19:53:00,
2013-11-24 14:58:00,27.2,2.6,30.33,NNW,328,17.0,20.0,34,0.00,,CLR,0.00,VWS V14.01,2013-11-24 19:58:00,
2013-11-24 15:03:00,27.1,3.1,30.33,WNW,298,9.0,20.0,35,0.00,,CLR,0.00,VWS V14.01,2013-11-24 20:03:00,
2013-11-24 15:08:00,27.0,3.0,30.33,WNW,292,11.0,19.0,35,0.00,,FEW070,0.00,VWS V14.01,2013-11-24 20:08:00,
2013-11-24 15:13:00,27.1,3.7,30.33,NW,312,11.0,14.0,36,0.00,,FEW070,0.00,VWS V14.01,2013-11-24 20:13:00,
2013-11-24 15:19:00,27.0,3.6,30.33,East,79,16.0,16.0,36,0.00,,FEW070,0.00,VWS V14.01,2013-11-24 20:19:00,
2013-11-24 15:24:00,27.1,3.7,30.33,WNW,297,11.0,17.0,36,0.00,,FEW070,0.00,VWS V14.01,2013-11-24 20:24:00,
2013-11-24 15:29:00,27.2,3.8,30.33,NNW,338,10.0,15.0,36,0.00,,FEW070,0.00,VWS V14.01,2013-11-24 20:29:00,
2013-11-24 15:34:00,27.1,3.7,30.33,West,264,7.0,17.0,36,0.00,,FEW070,0.00,VWS V14.01,2013-11-24 20:34:00,
2013-11-24 15:39:00,27.2,3.8,30.33,WNW,295,12.0,14.0,36,0.00,,FEW070,0.00,VWS V14.01,2013-11-24 20:39:00,
2013-11-24 15:44:00,26.9,2.9,30.34,West,276,7.0,19.0,35,0.00,,FEW070,0.00,VWS V14.01,2013-11-24 20:44:00,
2013-11-24 15:49:00,26.8,3.4,30.34,NW,308,8.0,16.0,36,0.00,,FEW070,0.00,VWS V14.01,2013-11-24 20:49:00,
2013-11-24 15:54:00,26.8,3.4,30.34,WNW,302,3.0,14.0,36,0.00,,FEW070,0.00,VWS V14.01,2013-11-24 20:54:00,
2013-11-24 15:59:00,26.6,3.3,30.34,NW,310,8.0,15.0,36,0.00,,FEW070,0.00,VWS V14.01,2013-11-24 20:59:00,
2013-11-24 16:04:00,26.5,3.2,30.35,WNW,298,4.0,14.0,36,0.00,,FEW070,0.00,VWS V14.01,2013-11-24 21:04:00,
2013-11-24 16:09:00,26.5,3.8,30.34,WNW,295,1.0,13.0,37,0.00,,CLR,0.00,VWS V14.01,2013-11-24 21:09:00,
2013-11-24 16:14:00,26.4,3.7,30.35,NW,326,5.0,13.0,37,0.00,,CLR,0.00,VWS V14.01,2013-11-24 21:14:00,
2013-11-24 16:19:00,26.2,3.5,30.35,WNW,297,5.0,12.0,37,0.00,,CLR,0.00,VWS V14.01,2013-11-24 21:19:00,
2013-11-24 16:24:00,26.1,4.0,30.35,NW,308,6.0,11.0,38,0.00,,CLR,0.00,VWS V14.01,2013-11-24 21:24:00,
2013-11-24 16:29:00,26.0,3.9,30.35,West,261,7.0,12.0,38,0.00,,CLR,0.00,VWS V14.01,2013-11-24 21:29:00,
2013-11-24 16:34:00,25.6,3.0,30.35,WNW,283,5.0,13.0,37,0.00,,CLR,0.00,VWS V14.01,2013-11-24 21:34:00,
2013-11-24 16:39:00,25.3,2.7,30.35,WNW,287,6.0,16.0,37,0.00,,CLR,0.00,VWS V14.01,2013-11-24 21:39:00,
2013-11-24 16:44:00,25.2,2.6,30.35,West,281,12.0,14.0,37,0.00,,CLR,0.00,VWS V14.01,2013-11-24 21:44:00,
2013-11-24 16:49:00,25.1,2.5,30.35,WNW,298,4.0,13.0,37,0.00,,CLR,0.00,VWS V14.01,2013-11-24 21:49:00,
2013-11-24 16:54:00,25.0,2.4,30.35,NW,308,3.0,14.0,37,0.00,,CLR,0.00,VWS V14.01,2013-11-24 21:54:00,
2013-11-24 17:00:00,24.7,2.7,30.36,WNW,301,9.0,13.0,38,0.00,,CLR,0.00,VWS V14.01,2013-11-24 22:00:00,
2013-11-24 17:05:00,24.6,3.2,30.36,WNW,298,4.0,4.0,39,0.00,,CLR,0.00,VWS V14.01,2013-11-24 22:05:00,
2013-11-24 17:10:00,24.4,3.6,30.36,WNW,294,4.0,4.0,40,0.00,,CLR,0.00,VWS V14.01,2013-11-24 22:10:00,
2013-11-24 17:15:00,24.2,3.4,30.36,WNW,297,9.0,9.0,40,0.00,,CLR,0.00,VWS V14.01,2013-11-24 22:15:00,
2013-11-24 17:20:00,24.2,3.4,30.37,WNW,291,4.0,11.0,40,0.00,,CLR,0.00,VWS V14.01,2013-11-24 22:20:00,
2013-11-24 17:25:00,24.2,3.4,30.37,NW,307,9.0,9.0,40,0.00,,CLR,0.00,VWS V14.01,2013-11-24 22:25:00,
2013-11-24 17:30:00,24.2,3.4,30.37,NW,315,4.0,7.0,40,0.00,,CLR,0.00,VWS V14.01,2013-11-24 22:30:00,
2013-11-24 17:35:00,24.0,3.7,30.37,NW,316,2.0,6.0,41,0.00,,CLR,0.00,VWS V14.01,2013-11-24 22:35:00,
2013-11-24 17:40:00,24.0,3.2,30.38,WNW,297,5.0,7.0,40,0.00,,CLR,0.00,VWS V14.01,2013-11-24 22:40:00,
2013-11-24 17:45:00,23.9,3.6,30.38,WNW,293,5.0,6.0,41,0.00,,CLR,0.00,VWS V14.01,2013-11-24 22:45:00,
2013-11-24 17:50:00,23.8,3.0,30.38,WNW,289,8.0,8.0,40,0.00,,CLR,0.00,VWS V14.01,2013-11-24 22:50:00,
2013-11-24 17:56:00,23.9,3.1,30.38,West,271,0.0,7.0,40,0.00,,CLR,0.00,VWS V14.01,2013-11-24 22:56:00,
2013-11-24 18:01:00,23.9,3.6,30.38,NW,319,3.0,5.0,41,0.00,,CLR,0.00,VWS V14.01,2013-11-24 23:01:00,
2013-11-24 18:06:00,23.6,3.4,30.39,NW,310,5.0,5.0,41,0.00,,CLR,0.00,VWS V14.01,2013-11-24 23:06:00,
2013-11-24 18:11:00,23.6,3.9,30.39,NNE,21,0.0,7.0,42,0.00,,CLR,0.00,VWS V14.01,2013-11-24 23:11:00,
2013-11-24 18:16:00,23.5,4.3,30.39,WSW,246,0.0,4.0,43,0.00,,CLR,0.00,VWS V14.01,2013-11-24 23:16:00,
2013-11-24 18:21:00,23.4,4.2,30.39,WNW,283,0.0,5.0,43,0.00,,CLR,0.00,VWS V14.01,2013-11-24 23:21:00,
2013-11-24 18:26:00,23.5,3.8,30.39,WNW,288,5.0,11.0,42,0.00,,CLR,0.00,VWS V14.01,2013-11-24 23:26:00,
2013-11-24 18:31:00,23.7,4.0,30.40,WNW,285,8.0,11.0,42,0.00,,CLR,0.00,VWS V14.01,2013-11-24 23:31:00,
2013-11-24 18:36:00,23.7,4.5,30.40,WNW,300,3.0,8.0,43,0.00,,CLR,0.00,VWS V14.01,2013-11-24 23:36:00,
2013-11-24 18:41:00,23.6,4.4,30.40,WNW,301,7.0,8.0,43,0.00,,CLR,0.00,VWS V14.01,2013-11-24 23:41:00,
2013-11-24 18:46:00,23.6,4.4,30.40,West,278,0.0,7.0,43,0.00,,CLR,0.00,VWS V14.01,2013-11-24 23:46:00,
2013-11-24 18:51:00,23.5,4.3,30.41,NW,321,3.0,8.0,43,0.00,,CLR,0.00,VWS V14.01,2013-11-24 23:51:00,
2013-11-24 18:57:00,23.5,4.3,30.41,WNW,294,4.0,7.0,43,0.00,,CLR,0.00,VWS V14.01,2013-11-24 23:57:00,
2013-11-24 19:02:00,23.5,4.8,30.41,WNW,285,0.0,6.0,44,0.00,,CLR,0.00,VWS V14.01,2013-11-25 00:02:00,
2013-11-24 19:07:00,23.5,4.8,30.41,West,262,0.0,8.0,44,0.00,,CLR,0.00,VWS V14.01,2013-11-25 00:07:00,
2013-11-24 19:12:00,23.4,4.7,30.41,NW,316,0.0,9.0,44,0.00,,CLR,0.00,VWS V14.01,2013-11-25 00:12:00,
2013-11-24 19:17:00,23.3,5.1,30.42,WNW,284,0.0,1.0,45,0.00,,CLR,0.00,VWS V14.01,2013-11-25 00:17:00,
2013-11-24 19:22:00,23.3,5.1,30.42,NW,319,0.0,11.0,45,0.00,,CLR,0.00,VWS V14.01,2013-11-25 00:22:00,
2013-11-24 19:27:00,23.3,5.1,30.42,West,273,4.0,11.0,45,0.00,,CLR,0.00,VWS V14.01,2013-11-25 00:27:00,
2013-11-24 19:32:00,23.4,5.2,30.41,NW,322,4.0,7.0,45,0.00,,CLR,0.00,VWS V14.01,2013-11-25 00:32:00,
2013-11-24 19:37:00,23.5,5.3,30.42,NW,305,1.0,13.0,45,0.00,,CLR,0.00,VWS V14.01,2013-11-25 00:37:00,
2013-11-24 19:42:00,23.5,5.8,30.41,NW,308,3.0,8.0,46,0.00,,CLR,0.00,VWS V14.01,2013-11-25 00:42:00,
2013-11-24 19:47:00,23.6,5.9,30.42,WNW,297,4.0,11.0,46,0.00,,CLR,0.00,VWS V14.01,2013-11-25 00:47:00,
2013-11-24 19:52:00,23.5,5.8,30.41,WNW,294,0.0,8.0,46,0.00,,CLR,0.00,VWS V14.01,2013-11-25 00:52:00,
2013-11-24 19:58:00,23.5,5.8,30.41,NNW,333,0.0,6.0,46,0.00,,CLR,0.00,VWS V14.01,2013-11-25 00:58:00,
2013-11-24 20:03:00,23.5,5.8,30.41,NW,314,9.0,9.0,46,0.00,,CLR,0.00,VWS V14.01,2013-11-25 01:03:00,
2013-11-24 20:08:00,23.5,5.8,30.41,WNW,290,2.0,9.0,46,0.00,,FEW070,0.00,VWS V14.01,2013-11-25 01:08:00,
2013-11-24 20:13:00,23.6,6.3,30.42,NW,307,1.0,11.0,47,0.00,,FEW070,0.00,VWS V14.01,2013-11-25 01:13:00,
2013-11-24 20:18:00,23.5,6.2,30.42,WNW,294,4.0,7.0,47,0.00,,FEW070,0.00,VWS V14.01,2013-11-25 01:18:00,
2013-11-24 20:23:00,23.5,6.2,30.42,NW,307,7.0,9.0,47,0.00,,FEW070,0.00,VWS V14.01,2013-11-25 01:23:00,
2013-11-24 20:28:00,23.4,6.6,30.42,NW,316,0.0,6.0,48,0.00,,FEW070,0.00,VWS V14.01,2013-11-25 01:28:00,
2013-11-24 20:33:00,23.2,6.4,30.42,WNW,290,7.0,8.0,48,0.00,,FEW070,0.00,VWS V14.01,2013-11-25 01:33:00,
2013-11-24 20:38:00,23.2,6.4,30.42,NW,304,0.0,7.0,48,0.00,,FEW070,0.00,VWS V14.01,2013-11-25 01:38:00,
2013-11-24 20:43:00,23.0,7.1,30.42,West,273,5.0,8.0,50,0.00,,FEW070,0.00,VWS V14.01,2013-11-25 01:43:00,
2013-11-24 20:48:00,22.8,7.4,30.42,West,273,0.0,3.0,51,0.00,,FEW070,0.00,VWS V14.01,2013-11-25 01:48:00,
2013-11-24 20:53:00,22.5,8.0,30.42,WSW,256,1.0,4.0,53,0.00,,FEW070,0.00,VWS V14.01,2013-11-25 01:53:00,
2013-11-24 20:58:00,22.4,9.1,30.42,WNW,287,4.0,8.0,56,0.00,,FEW070,0.00,VWS V14.01,2013-11-25 01:58:00,
2013-11-24 21:04:00,22.5,10.0,30.42,WNW,294,4.0,9.0,58,0.00,,FEW070,0.00,VWS V14.01,2013-11-25 02:04:00,
2013-11-24 21:09:00,22.7,10.5,30.42,West,276,7.0,11.0,59,0.00,,FEW070,0.00,VWS V14.01,2013-11-25 02:09:00,
2013-11-24 21:14:00,22.9,10.7,30.42,WNW,299,4.0,13.0,59,0.00,,FEW070,0.00,VWS V14.01,2013-11-25 02:14:00,
2013-11-24 21:19:00,22.9,11.1,30.42,WNW,295,9.0,10.0,60,0.00,,FEW070,0.00,VWS V14.01,2013-11-25 02:19:00,
2013-11-24 21:24:00,22.8,11.0,30.42,WNW,295,5.0,12.0,60,0.00,,FEW070,0.00,VWS V14.01,2013-11-25 02:24:00,
2013-11-24 21:29:00,22.7,11.3,30.42,WNW,293,5.0,11.0,61,0.00,,FEW070,0.00,VWS V14.01,2013-11-25 02:29:00,
2013-11-24 21:34:00,22.7,11.3,30.41,WNW,298,7.0,16.0,61,0.00,,FEW070,0.00,VWS V14.01,2013-11-25 02:34:00,
2013-11-24 21:39:00,22.7,11.6,30.41,WNW,300,6.0,18.0,62,0.00,,FEW070,0.00,VWS V14.01,2013-11-25 02:39:00,
2013-11-24 21:44:00,22.8,11.8,30.41,WNW,288,7.0,11.0,62,0.00,,FEW070,0.00,VWS V14.01,2013-11-25 02:44:00,
2013-11-24 21:49:00,22.6,11.9,30.42,WNW,295,4.0,9.0,63,0.00,,FEW070,0.00,VWS V14.01,2013-11-25 02:49:00,
2013-11-24 21:54:00,22.5,12.2,30.42,NW,309,4.0,9.0,64,0.00,,FEW070,0.00,VWS V14.01,2013-11-25 02:54:00,
2013-11-24 21:59:00,22.2,12.2,30.42,WNW,292,0.0,6.0,65,0.00,,FEW070,0.00,VWS V14.01,2013-11-25 02:59:00,
2013-11-24 22:05:00,22.0,12.1,30.43,WNW,289,2.0,8.0,65,0.00,,FEW070,0.00,VWS V14.01,2013-11-25 03:05:00,
2013-11-24 22:10:00,21.9,12.3,30.43,WNW,283,3.0,9.0,66,0.00,,CLR,0.00,VWS V14.01,2013-11-25 03:10:00,
2013-11-24 22:15:00,21.9,12.6,30.43,West,278,5.0,9.0,67,0.00,,CLR,0.00,VWS V14.01,2013-11-25 03:15:00,
2013-11-24 22:20:00,21.9,12.6,30.43,WNW,293,3.0,7.0,67,0.00,,CLR,0.00,VWS V14.01,2013-11-25 03:20:00,
2013-11-24 22:25:00,22.0,12.7,30.43,West,276,8.0,10.0,67,0.00,,CLR,0.00,VWS V14.01,2013-11-25 03:25:00,
2013-11-24 22:30:00,21.9,13.0,30.44,NW,306,3.0,4.0,68,0.00,,CLR,0.00,VWS V14.01,2013-11-25 03:30:00,
2013-11-24 22:35:00,21.9,13.0,30.44,WNW,287,0.0,2.0,68,0.00,,CLR,0.00,VWS V14.01,2013-11-25 03:35:00,
2013-11-24 22:40:00,21.7,13.1,30.44,WNW,294,0.0,2.0,69,0.00,,CLR,0.00,VWS V14.01,2013-11-25 03:40:00,
2013-11-24 22:45:00,21.5,12.9,30.44,West,266,3.0,4.0,69,0.00,,CLR,0.00,VWS V14.01,2013-11-25 03:45:00,
2013-11-24 22:50:00,21.5,12.9,30.44,WNW,291,2.0,2.0,69,0.00,,CLR,0.00,VWS V14.01,2013-11-25 03:50:00,
2013-11-24 22:55:00,21.3,13.1,30.44,NW,308,0.0,0.0,70,0.00,,CLR,0.00,VWS V14.01,2013-11-25 03:55:00,
2013-11-24 23:00:00,21.3,12.7,30.44,West,278,1.0,3.0,69,0.00,,CLR,0.00,VWS V14.01,2013-11-25 04:00:00,
2013-11-24 23:05:00,21.2,12.6,30.44,WNW,283,1.0,4.0,69,0.00,,CLR,0.00,VWS V14.01,2013-11-25 04:05:00,
2013-11-24 23:10:00,21.1,12.9,30.44,WNW,283,0.0,0.0,70,0.00,,CLR,0.00,VWS V14.01,2013-11-25 04:10:00,
2013-11-24 23:15:00,21.1,12.9,30.44,WNW,301,3.0,5.0,70,0.00,,CLR,0.00,VWS V14.01,2013-11-25 04:15:00,
2013-11-24 23:21:00,21.0,12.8,30.44,West,262,0.0,1.0,70,0.00,,CLR,0.00,VWS V14.01,2013-11-25 04:21:00,
2013-11-24 23:26:00,20.8,12.6,30.44,WSW,256,0.0,1.0,70,0.00,,CLR,0.00,VWS V14.01,2013-11-25 04:26:00,
2013-11-24 23:31:00,20.8,12.2,30.45,West,266,0.0,2.0,69,0.00,,CLR,0.00,VWS V14.01,2013-11-25 04:31:00,
2013-11-24 23:36:00,20.8,12.2,30.45,WNW,283,0.0,3.0,69,0.00,,CLR,0.00,VWS V14.01,2013-11-25 04:36:00,
2013-11-24 23:41:00,20.6,12.1,30.45,WNW,302,0.0,0.0,69,0.00,,CLR,0.00,VWS V14.01,2013-11-25 04:41:00,
2013-11-24 23:46:00,20.6,12.1,30.45,WNW,302,0.0,0.0,69,0.00,,CLR,0.00,VWS V14.01,2013-11-25 04:46:00,
2013-11-24 23:51:00,20.7,12.1,30.45,NW,305,0.0,7.0,69,0.00,,CLR,0.00,VWS V14.01,2013-11-25 04:51:00,
2013-11-24 23:56:00,20.7,11.8,30.44,WNW,302,2.0,3.0,68,0.00,,CLR,0.00,VWS V14.01,2013-11-25 04:56:00,